Regional Weather Roundup
Issued by NWS Charleston, WV

Home | Current Version | Previous Version | Graphics & Text | Print | Product List | Glossary On
Versions: 1 2 3 4 5 6 7 8 9 10 11 12 13 14 15 16 17 18 19 20 21 22 23 24 25 26 27
000
ASUS41 KRLX 202310
RWRRLX
West Virginia Regional Weather Roundup
National Weather Service Charleston WV
700 PM EDT WED SEP 20 2017

Note: "fair" indicates few or no clouds below 12,000 feet with no
significant weather and/or obstructions to visibility.

WVZ003-210000-
Northern Panhandle of West Virginia

CITY           SKY/WX    TMP DP  RH WIND       PRES   REMARKS
WHEELING       CLEAR     76  63  64 S3        30.02S
$$

WVZ009-210000-
Northwest West Virginia

CITY           SKY/WX    TMP DP  RH WIND       PRES   REMARKS
PARKERSBURG    CLEAR     78  68  71 MISG      30.03S
$$

WVZ006-210000-
Western West Virginia

CITY           SKY/WX    TMP DP  RH WIND       PRES   REMARKS
HUNTINGTON     PTCLDY    79  65  62 CALM      30.01S
$$

WVZ015-210000-
West Central West Virginia

CITY           SKY/WX    TMP DP  RH WIND       PRES   REMARKS
CHARLESTON     PTCLDY    78  62  57 W5        30.02R
$$

WVZ022-031-210000-
North Central West Virginia

CITY           SKY/WX    TMP DP  RH WIND       PRES   REMARKS
CLARKSBURG     LGT RAIN  76  64  66 CALM      30.02S
MORGANTOWN     PTCLDY    75  66  73 CALM      30.03S
$$

WVZ025-035-042-045-210000-
Southern West Virginia

CITY           SKY/WX    TMP DP  RH WIND       PRES   REMARKS
BECKLEY        CLEAR     65  63  93 CALM      30.10R
LOGAN            N/A     75  64  69 CALM      30.06R
BLUEFIELD      PTCLDY    73  57  57 MISG      30.12R
LEWISBURG      CLEAR     74  60  60 CALM      30.08R
$$

WVZ047-210000-
Northern Mountains of West Virginia

CITY           SKY/WX    TMP DP  RH WIND       PRES   REMARKS
ELKINS         CLEAR     73  62  68 N3        30.07R
$$

WVZ052-210000-
Eastern Panhandle of West Virginia

CITY           SKY/WX    TMP DP  RH WIND       PRES   REMARKS
MARTINSBURG    CLEAR     81  57  43 NE6       29.96R
PETERSBURG     PTCLDY    82  64  54 NE5       30.00R
$$




USA.gov is the U.S. government's official web portal to all federal, state and local government web resources and services.